Location: Calvatone
(45.1167°N, 10.4333°E)
Time: 16:52:30
(UTC+00:00)

Cosmos 2360 Rocket - Pass Details

Date: 28 January 2023
Orbit: 832 x 846 km, 71.0° (Epoch: 30 March)

Event Time Altitude Azimuth Distance (km) Brightness Sun altitude
Rises 19:36:10 0° 212° (SSW) 3,371 5.6 -34.6°
Reaches altitude 10° 19:38:37 10° 215° (SW) 2,443 4.8 -35.0°
Enters shadow 19:40:17 20° 219° (SW) 1,832 4.1 -35.3°
